DAL865 KATL-KBOS

Flight info

Callsign DAL865
Flight time 2h 9m
Altitude 35000
Route PLMMR3 BURGG Q22 RBV Q419 JFK ROBUC3
Aircraft A321/M-SDE3FGHIRWY/LB1

Departure

Time 2026-05-04 01:49
Airport Hartsfield Jackson Atlanta International Airport (KATL)

Arrival

Time 2026-05-04 03:58
Airport Boston Logan International Airport (KBOS)
Time Latitude Longitude Altitude Speed Heading
2026-05-04 01:21 33.64151 -84.43203 1036 ft 0 kts 270°
2026-05-04 01:37 33.64151 -84.43194 1035 ft 4 kts 270°
2026-05-04 01:37 33.64153 -84.43162 1035 ft 4 kts 251°
2026-05-04 01:37 33.64166 -84.43137 1035 ft 4 kts 207°
2026-05-04 01:37 33.64181 -84.43132 1035 ft 0 kts 180°
2026-05-04 01:40 33.64175 -84.43132 1035 ft 2 kts 180°
2026-05-04 01:41 33.64145 -84.43132 1035 ft 7 kts 180°
2026-05-04 01:41 33.64086 -84.43133 1035 ft 10 kts 180°
2026-05-04 01:41 33.64016 -84.43133 1035 ft 10 kts 180°
2026-05-04 01:41 33.63954 -84.43133 1035 ft 8 kts 179°
2026-05-04 01:42 33.63898 -84.43132 1035 ft 9 kts 179°
2026-05-04 01:42 33.63820 -84.43132 1035 ft 13 kts 180°
2026-05-04 01:42 33.63736 -84.43132 1035 ft 12 kts 180°
2026-05-04 01:42 33.63671 -84.43099 1035 ft 10 kts 124°
2026-05-04 01:43 33.63664 -84.42999 1035 ft 15 kts 89°
2026-05-04 01:43 33.63665 -84.42861 1035 ft 16 kts 90°
2026-05-04 01:43 33.63660 -84.42733 1036 ft 15 kts 96°
2026-05-04 01:43 33.63656 -84.42618 1036 ft 13 kts 89°
2026-05-04 01:44 33.63656 -84.42489 1036 ft 16 kts 90°
2026-05-04 01:44 33.63656 -84.42354 1036 ft 16 kts 90°
2026-05-04 01:44 33.63655 -84.42226 1036 ft 14 kts 95°
2026-05-04 01:44 33.63615 -84.42122 1036 ft 13 kts 120°
2026-05-04 01:45 33.63581 -84.42023 1036 ft 13 kts 92°
2026-05-04 01:45 33.63582 -84.41887 1035 ft 18 kts 90°
2026-05-04 01:45 33.63582 -84.41612 1035 ft 15 kts 90°
2026-05-04 01:46 33.63582 -84.41489 1034 ft 14 kts 90°
2026-05-04 01:46 33.63582 -84.41412 1034 ft 13 kts 90°
2026-05-04 01:46 33.63582 -84.41292 1035 ft 18 kts 90°
2026-05-04 01:46 33.63582 -84.41124 1035 ft 18 kts 90°
2026-05-04 01:47 33.63582 -84.40993 1035 ft 14 kts 90°
2026-05-04 01:47 33.63549 -84.40915 1036 ft 10 kts 160°
2026-05-04 01:47 33.63489 -84.40919 1036 ft 7 kts 205°
2026-05-04 01:47 33.63472 -84.40977 1036 ft 11 kts 270°
2026-05-04 01:48 33.63473 -84.41191 1034 ft 55 kts 270°
2026-05-04 01:48 33.63473 -84.41918 1037 ft 116 kts 270°
2026-05-04 01:48 33.63472 -84.43082 1036 ft 161 kts 270°
2026-05-04 01:48 33.63470 -84.44500 1434 ft 169 kts 270°
2026-05-04 01:49 33.63450 -84.45889 2086 ft 169 kts 270°
2026-05-04 01:49 33.63395 -84.47294 2690 ft 171 kts 260°
2026-05-04 01:49 33.62940 -84.48680 2949 ft 189 kts 244°
2026-05-04 01:49 33.62313 -84.50160 3076 ft 210 kts 244°
2026-05-04 01:50 33.61614 -84.51807 3213 ft 233 kts 244°
2026-05-04 01:50 33.60854 -84.53609 3505 ft 253 kts 244°
2026-05-04 01:50 33.60047 -84.55525 4186 ft 260 kts 244°
2026-05-04 01:50 33.59063 -84.57356 4967 ft 265 kts 224°
2026-05-04 01:51 33.57456 -84.58406 5679 ft 272 kts 191°
2026-05-04 01:51 33.55549 -84.58511 6393 ft 278 kts 180°
2026-05-04 01:51 33.53597 -84.58488 7089 ft 283 kts 180°
2026-05-04 01:51 33.51614 -84.58467 7788 ft 287 kts 180°
2026-05-04 01:52 33.49605 -84.58401 8493 ft 292 kts 173°
2026-05-04 01:52 33.47689 -84.57573 9150 ft 298 kts 145°
2026-05-04 01:52 33.46269 -84.55782 9812 ft 300 kts 117°
2026-05-04 01:52 33.45662 -84.53399 10318 ft 307 kts 92°
2026-05-04 01:53 33.45589 -84.50760 10475 ft 328 kts 88°
2026-05-04 01:53 33.45587 -84.47973 10664 ft 347 kts 88°
2026-05-04 01:53 33.45604 -84.45049 11183 ft 355 kts 88°
2026-05-04 01:53 33.45616 -84.42078 11810 ft 359 kts 88°
2026-05-04 01:54 33.45626 -84.39068 12441 ft 363 kts 86°
2026-05-04 01:54 33.45958 -84.36065 13094 ft 365 kts 74°
2026-05-04 01:54 33.46812 -84.33192 13711 ft 367 kts 62°
2026-05-04 01:54 33.48154 -84.30600 14284 ft 368 kts 49°
2026-05-04 01:55 33.49898 -84.28353 14843 ft 369 kts 42°
2026-05-04 01:55 33.51718 -84.26158 15405 ft 373 kts 43°
2026-05-04 01:55 33.53551 -84.23934 15969 ft 377 kts 43°
2026-05-04 01:55 33.55401 -84.21686 16537 ft 381 kts 43°
2026-05-04 01:56 33.57268 -84.19410 17078 ft 384 kts 43°
2026-05-04 01:56 33.59150 -84.17111 17623 ft 388 kts 43°
2026-05-04 01:56 33.61052 -84.14782 18136 ft 392 kts 43°
2026-05-04 01:56 33.62972 -84.12430 18631 ft 396 kts 43°
2026-05-04 01:57 33.64906 -84.10060 19105 ft 399 kts 43°
2026-05-04 01:57 33.66854 -84.07676 19570 ft 402 kts 43°
2026-05-04 01:57 33.68819 -84.05271 20043 ft 404 kts 43°
2026-05-04 01:57 33.70796 -84.02853 20520 ft 407 kts 43°
2026-05-04 01:58 33.72789 -84.00409 20963 ft 410 kts 43°
2026-05-04 01:58 33.74787 -83.97954 21417 ft 413 kts 43°
2026-05-04 01:58 33.76778 -83.95506 21874 ft 416 kts 43°
2026-05-04 01:58 33.78806 -83.93016 22321 ft 418 kts 43°
2026-05-04 01:59 33.80850 -83.90508 22769 ft 421 kts 43°
2026-05-04 01:59 33.82939 -83.87942 23154 ft 426 kts 43°
2026-05-04 01:59 33.84994 -83.85412 23557 ft 429 kts 43°
2026-05-04 01:59 33.87087 -83.82831 23927 ft 432 kts 43°
2026-05-04 02:00 33.89188 -83.80239 24316 ft 434 kts 43°
2026-05-04 02:00 33.91300 -83.77629 24692 ft 436 kts 43°
2026-05-04 02:00 33.93421 -83.75005 25067 ft 438 kts 43°
2026-05-04 02:00 33.95498 -83.72312 25431 ft 441 kts 48°
2026-05-04 02:01 33.97350 -83.69345 25800 ft 444 kts 51°
2026-05-04 02:01 33.99188 -83.66346 26174 ft 446 kts 51°
2026-05-04 02:01 34.01036 -83.63336 26515 ft 447 kts 50°
2026-05-04 02:01 34.02891 -83.60316 26874 ft 449 kts 50°
2026-05-04 02:02 34.04753 -83.57282 27222 ft 451 kts 50°
2026-05-04 02:02 34.06629 -83.54224 27510 ft 454 kts 50°
2026-05-04 02:02 34.08514 -83.51150 27813 ft 457 kts 50°
2026-05-04 02:02 34.10387 -83.48097 28121 ft 459 kts 50°
2026-05-04 02:03 34.12292 -83.44987 28442 ft 461 kts 50°
2026-05-04 02:03 34.14201 -83.41867 28743 ft 463 kts 50°
2026-05-04 02:03 34.16118 -83.38726 29061 ft 465 kts 50°
2026-05-04 02:03 34.18037 -83.35575 29352 ft 467 kts 50°
2026-05-04 02:04 34.19960 -83.32413 29644 ft 468 kts 50°
2026-05-04 02:04 34.21894 -83.29233 29937 ft 470 kts 50°
2026-05-04 02:04 34.23828 -83.26050 30222 ft 472 kts 50°
2026-05-04 02:04 34.25779 -83.22840 30463 ft 474 kts 50°
2026-05-04 02:05 34.27732 -83.19625 30754 ft 474 kts 50°
2026-05-04 02:05 34.29682 -83.16409 31102 ft 474 kts 50°
2026-05-04 02:05 34.31632 -83.13190 31377 ft 475 kts 51°
2026-05-04 02:05 34.33591 -83.09969 31694 ft 475 kts 50°
2026-05-04 02:06 34.35532 -83.06794 32024 ft 475 kts 50°
2026-05-04 02:06 34.37503 -83.03576 32369 ft 475 kts 50°
2026-05-04 02:06 34.39469 -83.00370 32715 ft 474 kts 50°
2026-05-04 02:06 34.41436 -82.97158 33066 ft 473 kts 50°
2026-05-04 02:07 34.43397 -82.93951 33423 ft 473 kts 50°
2026-05-04 02:07 34.45357 -82.90742 33784 ft 472 kts 50°
2026-05-04 02:07 34.47306 -82.87540 34122 ft 472 kts 51°
2026-05-04 02:07 34.49251 -82.84338 34389 ft 472 kts 51°
2026-05-04 02:08 34.51198 -82.81130 34620 ft 473 kts 51°
2026-05-04 02:08 34.53126 -82.77956 34843 ft 474 kts 50°
2026-05-04 02:08 34.55090 -82.74725 34985 ft 477 kts 50°
2026-05-04 02:08 34.57062 -82.71476 35083 ft 478 kts 51°
2026-05-04 02:09 34.60981 -82.64991 35102 ft 475 kts 51°
2026-05-04 02:09 34.64891 -82.58510 35099 ft 475 kts 51°
2026-05-04 02:10 34.68786 -82.52022 35089 ft 475 kts 51°
2026-05-04 02:10 34.72598 -82.45529 35111 ft 475 kts 52°
2026-05-04 02:11 34.76417 -82.38973 35121 ft 475 kts 52°
2026-05-04 02:11 34.80254 -82.32415 35101 ft 476 kts 51°
2026-05-04 02:12 34.84096 -82.25836 35095 ft 477 kts 51°
2026-05-04 02:12 34.87945 -82.19237 35095 ft 478 kts 51°
2026-05-04 02:13 34.91797 -82.12624 35102 ft 479 kts 52°
2026-05-04 02:13 34.95627 -82.06031 35096 ft 479 kts 52°
2026-05-04 02:14 34.99478 -81.99387 35110 ft 479 kts 51°
2026-05-04 02:14 35.03325 -81.92735 35107 ft 480 kts 51°
2026-05-04 02:15 35.07279 -81.86173 35102 ft 480 kts 49°
2026-05-04 02:15 35.11356 -81.79721 35095 ft 480 kts 49°
2026-05-04 02:16 35.15430 -81.73255 35089 ft 480 kts 49°
2026-05-04 02:16 35.19457 -81.66740 35116 ft 480 kts 50°
2026-05-04 02:17 35.23443 -81.60241 35127 ft 481 kts 49°
2026-05-04 02:17 35.27465 -81.53700 35046 ft 479 kts 49°
2026-05-04 02:18 35.31464 -81.47197 35050 ft 478 kts 49°
2026-05-04 02:18 35.35477 -81.40664 35055 ft 481 kts 49°
2026-05-04 02:19 35.39492 -81.34086 35065 ft 482 kts 50°
2026-05-04 02:19 35.43516 -81.27497 35081 ft 483 kts 50°
2026-05-04 02:20 35.47549 -81.20898 35091 ft 484 kts 49°
2026-05-04 02:20 35.51581 -81.14264 35085 ft 485 kts 50°
2026-05-04 02:21 35.55590 -81.07654 35087 ft 486 kts 49°
2026-05-04 02:21 35.59630 -81.00998 35083 ft 486 kts 50°
2026-05-04 02:22 35.63672 -80.94318 35092 ft 487 kts 50°
2026-05-04 02:22 35.67713 -80.87626 35090 ft 487 kts 50°
2026-05-04 02:23 35.71732 -80.80962 35083 ft 488 kts 50°
2026-05-04 02:23 35.75776 -80.74245 35081 ft 489 kts 50°
2026-05-04 02:24 35.79823 -80.67508 35076 ft 489 kts 50°
2026-05-04 02:24 35.83871 -80.60757 35086 ft 489 kts 50°
2026-05-04 02:25 35.87905 -80.53997 35093 ft 489 kts 50°
2026-05-04 02:25 35.91922 -80.47259 35066 ft 490 kts 50°
2026-05-04 02:26 35.95970 -80.40470 35072 ft 491 kts 50°
2026-05-04 02:26 36.00021 -80.33672 35062 ft 491 kts 50°
2026-05-04 02:27 36.04078 -80.26872 35073 ft 492 kts 50°
2026-05-04 02:27 36.08133 -80.20058 35070 ft 492 kts 50°
2026-05-04 02:28 36.12184 -80.13221 35094 ft 493 kts 50°
2026-05-04 02:28 36.16210 -80.06425 35089 ft 494 kts 50°
2026-05-04 02:29 36.20268 -79.99560 35085 ft 494 kts 50°
2026-05-04 02:29 36.24323 -79.92665 35084 ft 495 kts 50°
2026-05-04 02:30 36.28374 -79.85763 35091 ft 495 kts 50°
2026-05-04 02:30 36.32423 -79.78864 35124 ft 495 kts 50°
2026-05-04 02:31 36.36485 -79.71948 35104 ft 496 kts 50°
2026-05-04 02:31 36.40548 -79.65018 35073 ft 496 kts 50°
2026-05-04 02:32 36.44586 -79.58109 35073 ft 497 kts 50°
2026-05-04 02:32 36.48635 -79.51146 35071 ft 497 kts 50°
2026-05-04 02:33 36.52684 -79.44180 35096 ft 497 kts 50°
2026-05-04 02:33 36.56738 -79.37207 35093 ft 498 kts 50°
2026-05-04 02:34 36.60788 -79.30212 35084 ft 498 kts 50°
2026-05-04 02:34 36.64817 -79.23230 35083 ft 499 kts 50°
2026-05-04 02:35 36.68862 -79.16202 35080 ft 499 kts 50°
2026-05-04 02:35 36.72919 -79.09164 35079 ft 500 kts 50°
2026-05-04 02:36 36.76952 -79.02158 35088 ft 501 kts 50°
2026-05-04 02:36 36.81014 -78.95069 35075 ft 502 kts 50°
2026-05-04 02:37 36.84380 -78.89163 35072 ft 502 kts 50°
2026-05-04 02:37 36.89080 -78.80875 35077 ft 503 kts 50°
2026-05-04 02:38 36.92460 -78.74884 35085 ft 503 kts 50°
2026-05-04 02:38 36.96465 -78.67778 35112 ft 503 kts 50°
2026-05-04 02:39 37.00500 -78.60610 35091 ft 504 kts 50°
2026-05-04 02:39 37.04542 -78.53422 35082 ft 504 kts 50°
2026-05-04 02:40 37.08577 -78.46226 35078 ft 505 kts 50°
2026-05-04 02:40 37.12615 -78.39003 35082 ft 505 kts 50°
2026-05-04 02:41 37.16623 -78.31833 35102 ft 506 kts 50°
2026-05-04 02:41 37.20576 -78.24513 35089 ft 510 kts 57°
2026-05-04 02:42 37.24021 -78.16727 35083 ft 510 kts 57°
2026-05-04 02:42 37.27484 -78.08936 35081 ft 511 kts 57°
2026-05-04 02:43 37.30946 -78.01147 35078 ft 511 kts 57°
2026-05-04 02:43 37.34378 -77.93386 35108 ft 511 kts 57°
2026-05-04 02:44 37.37830 -77.85560 35077 ft 511 kts 57°
2026-05-04 02:44 37.41272 -77.77719 35088 ft 512 kts 58°
2026-05-04 02:45 37.44702 -77.69862 35090 ft 512 kts 58°
2026-05-04 02:45 37.48139 -77.62002 35086 ft 513 kts 58°
2026-05-04 02:46 37.51585 -77.54128 35094 ft 513 kts 57°
2026-05-04 02:46 37.55033 -77.46232 35104 ft 515 kts 57°
2026-05-04 02:47 37.58455 -77.38350 35083 ft 516 kts 58°
2026-05-04 02:47 37.61890 -77.30378 35080 ft 517 kts 58°
2026-05-04 02:48 37.65332 -77.22408 35076 ft 517 kts 57°
2026-05-04 02:48 37.69383 -77.15075 35076 ft 506 kts 40°
2026-05-04 02:49 37.74718 -77.09547 35079 ft 488 kts 22°
2026-05-04 02:49 37.80626 -77.05426 35080 ft 485 kts 20°
2026-05-04 02:50 37.86546 -77.01329 35083 ft 485 kts 20°
2026-05-04 02:50 37.92470 -76.97212 35089 ft 486 kts 20°
2026-05-04 02:51 37.98398 -76.93084 35088 ft 486 kts 20°
2026-05-04 02:51 38.04329 -76.88955 35075 ft 486 kts 20°
2026-05-04 02:52 38.10231 -76.84842 35066 ft 487 kts 20°
2026-05-04 02:52 38.16171 -76.80684 35106 ft 487 kts 20°
2026-05-04 02:53 38.22115 -76.76514 35088 ft 488 kts 19°
2026-05-04 02:53 38.27723 -76.71428 35068 ft 502 kts 32°
2026-05-04 02:54 38.33051 -76.65670 35064 ft 502 kts 33°
2026-05-04 02:54 38.38382 -76.59892 35090 ft 503 kts 33°
2026-05-04 02:55 38.46361 -76.51286 35085 ft 503 kts 32°
2026-05-04 02:56 38.51709 -76.45562 35066 ft 502 kts 32°
2026-05-04 02:56 38.57057 -76.39828 35106 ft 503 kts 32°
2026-05-04 02:57 38.62406 -76.34054 35100 ft 503 kts 32°
2026-05-04 02:57 38.67743 -76.28260 35090 ft 503 kts 32°
2026-05-04 02:58 38.73090 -76.22457 35088 ft 503 kts 32°
2026-05-04 02:58 38.78437 -76.16665 35114 ft 503 kts 33°
2026-05-04 02:59 38.83784 -76.10861 35099 ft 503 kts 32°
2026-05-04 02:59 38.89086 -76.05077 35106 ft 504 kts 32°
2026-05-04 03:00 38.94424 -75.99251 35093 ft 504 kts 32°
2026-05-04 03:00 38.99718 -75.93318 35092 ft 506 kts 35°
2026-05-04 03:01 39.04874 -75.87126 35081 ft 507 kts 36°
2026-05-04 03:01 39.09997 -75.80880 35068 ft 507 kts 36°
2026-05-04 03:02 39.15143 -75.74693 35092 ft 506 kts 36°
2026-05-04 03:02 39.20308 -75.68532 35077 ft 505 kts 36°
2026-05-04 03:03 39.25466 -75.62360 35065 ft 505 kts 36°
2026-05-04 03:03 39.30215 -75.56644 35056 ft 505 kts 36°
2026-05-04 03:04 39.31528 -75.55059 35052 ft 505 kts 36°
2026-05-04 03:04 39.36667 -75.48853 35069 ft 504 kts 37°
2026-05-04 03:05 39.41775 -75.42673 35063 ft 502 kts 37°
2026-05-04 03:05 39.46877 -75.36501 35047 ft 502 kts 36°
2026-05-04 03:06 39.51979 -75.30317 35042 ft 502 kts 36°
2026-05-04 03:06 39.57080 -75.24122 35066 ft 502 kts 37°
2026-05-04 03:07 39.62164 -75.17923 35061 ft 501 kts 37°
2026-05-04 03:07 39.67200 -75.11768 35055 ft 500 kts 37°
2026-05-04 03:08 39.72355 -75.05733 35049 ft 497 kts 34°
2026-05-04 03:08 39.77628 -74.99908 35021 ft 498 kts 33°
2026-05-04 03:09 39.82915 -74.94065 35020 ft 499 kts 33°
2026-05-04 03:09 39.88165 -74.88143 35022 ft 500 kts 34°
2026-05-04 03:10 39.93630 -74.82679 35051 ft 493 kts 28°
2026-05-04 03:10 39.99190 -74.77552 35046 ft 492 kts 28°
2026-05-04 03:11 40.04630 -74.71977 35032 ft 501 kts 40°
2026-05-04 03:11 40.09316 -74.65278 35004 ft 503 kts 42°
2026-05-04 03:12 40.14020 -74.58496 35028 ft 503 kts 43°
2026-05-04 03:12 40.18703 -74.51722 35026 ft 502 kts 43°
2026-05-04 03:13 40.23826 -74.45684 35029 ft 493 kts 33°
2026-05-04 03:13 40.29163 -74.40006 35060 ft 493 kts 33°
2026-05-04 03:14 40.34406 -74.34377 35026 ft 488 kts 33°
2026-05-04 03:14 40.39656 -74.28731 34983 ft 488 kts 33°
2026-05-04 03:15 40.44919 -74.23073 34979 ft 489 kts 33°
2026-05-04 03:15 40.50193 -74.17395 35026 ft 489 kts 34°
2026-05-04 03:16 40.54722 -74.10702 35016 ft 500 kts 55°
2026-05-04 03:16 40.57467 -74.02231 35010 ft 505 kts 71°
2026-05-04 03:17 40.59519 -73.93380 34988 ft 506 kts 71°
2026-05-04 03:17 40.61564 -73.84558 34983 ft 507 kts 71°
2026-05-04 03:18 40.64445 -73.76153 35011 ft 500 kts 53°
2026-05-04 03:18 40.68786 -73.69125 34544 ft 492 kts 43°
2026-05-04 03:18 40.71070 -73.65772 33932 ft 492 kts 43°
2026-05-04 03:19 40.73332 -73.62456 33196 ft 492 kts 43°
2026-05-04 03:19 40.75626 -73.59095 32597 ft 490 kts 43°
2026-05-04 03:19 40.77888 -73.55776 32166 ft 484 kts 43°
2026-05-04 03:19 40.80123 -73.52490 31757 ft 477 kts 43°
2026-05-04 03:20 40.82322 -73.49253 31411 ft 469 kts 43°
2026-05-04 03:20 40.84487 -73.46065 31010 ft 463 kts 43°
2026-05-04 03:20 40.86626 -73.42913 30594 ft 457 kts 42°
2026-05-04 03:20 40.88736 -73.39803 30190 ft 452 kts 42°
2026-05-04 03:21 40.90823 -73.36723 29722 ft 447 kts 42°
2026-05-04 03:21 40.92884 -73.33677 29180 ft 442 kts 42°
2026-05-04 03:21 40.94926 -73.30655 28647 ft 438 kts 42°
2026-05-04 03:21 40.96950 -73.27658 28118 ft 435 kts 42°
2026-05-04 03:22 40.98958 -73.24688 27622 ft 431 kts 42°
2026-05-04 03:22 41.00948 -73.21744 27113 ft 427 kts 42°
2026-05-04 03:22 41.02920 -73.18823 26594 ft 423 kts 42°
2026-05-04 03:22 41.04876 -73.15926 26074 ft 420 kts 42°
2026-05-04 03:23 41.06791 -73.13083 25587 ft 417 kts 42°
2026-05-04 03:23 41.08709 -73.10219 25092 ft 414 kts 42°
2026-05-04 03:23 41.10610 -73.07371 24601 ft 411 kts 42°
2026-05-04 03:23 41.12504 -73.04539 24124 ft 408 kts 42°
2026-05-04 03:24 41.14381 -73.01730 23662 ft 405 kts 42°
2026-05-04 03:24 41.16245 -72.98939 23145 ft 403 kts 42°
2026-05-04 03:24 41.18099 -72.96170 22620 ft 399 kts 42°
2026-05-04 03:24 41.19935 -72.93418 22120 ft 396 kts 43°
2026-05-04 03:25 41.21553 -72.90435 21628 ft 400 kts 54°
2026-05-04 03:25 41.22843 -72.87161 21158 ft 399 kts 58°
2026-05-04 03:25 41.24093 -72.83884 20939 ft 396 kts 58°
2026-05-04 03:25 41.25328 -72.80661 20975 ft 397 kts 58°
2026-05-04 03:26 41.26581 -72.77392 20969 ft 397 kts 58°
2026-05-04 03:26 41.27836 -72.74119 20970 ft 397 kts 58°
2026-05-04 03:26 41.29087 -72.70845 20967 ft 398 kts 58°
2026-05-04 03:26 41.30336 -72.67564 20962 ft 397 kts 58°
2026-05-04 03:27 41.31585 -72.64276 20962 ft 397 kts 58°
2026-05-04 03:27 41.32831 -72.60992 20966 ft 397 kts 58°
2026-05-04 03:27 41.34077 -72.57707 20959 ft 396 kts 58°
2026-05-04 03:27 41.35305 -72.54473 20963 ft 396 kts 58°
2026-05-04 03:28 41.36549 -72.51200 20956 ft 396 kts 58°
2026-05-04 03:28 41.37790 -72.47924 20958 ft 396 kts 58°
2026-05-04 03:28 41.39028 -72.44642 20960 ft 396 kts 58°
2026-05-04 03:28 41.40263 -72.41360 20958 ft 396 kts 58°
2026-05-04 03:29 41.41082 -72.39183 20961 ft 396 kts 58°
2026-05-04 03:29 41.42317 -72.35903 20964 ft 396 kts 58°
2026-05-04 03:29 41.43549 -72.32623 20961 ft 396 kts 58°
2026-05-04 03:29 41.44785 -72.29346 20940 ft 395 kts 58°
2026-05-04 03:30 41.46414 -72.25026 20359 ft 391 kts 58°
2026-05-04 03:30 41.47626 -72.21796 19904 ft 388 kts 58°
2026-05-04 03:30 41.48439 -72.19620 19600 ft 386 kts 58°
2026-05-04 03:30 41.49610 -72.16444 19176 ft 384 kts 59°
2026-05-04 03:31 41.50772 -72.13257 18756 ft 381 kts 59°
2026-05-04 03:31 41.51926 -72.10081 18343 ft 378 kts 59°
2026-05-04 03:31 41.53069 -72.06941 17886 ft 375 kts 59°
2026-05-04 03:31 41.54204 -72.03827 17433 ft 371 kts 58°
2026-05-04 03:32 41.55327 -72.00738 16985 ft 368 kts 58°
2026-05-04 03:32 41.56387 -71.97676 16545 ft 367 kts 61°
2026-05-04 03:32 41.57369 -71.94539 16131 ft 365 kts 63°
2026-05-04 03:32 41.58293 -71.91396 15719 ft 362 kts 63°
2026-05-04 03:33 41.59191 -71.88263 15321 ft 360 kts 63°
2026-05-04 03:33 41.60081 -71.85147 14910 ft 357 kts 63°
2026-05-04 03:33 41.60973 -71.82061 14505 ft 355 kts 62°
2026-05-04 03:33 41.61867 -71.79006 14114 ft 352 kts 62°
2026-05-04 03:34 41.62759 -71.75974 13714 ft 349 kts 62°
2026-05-04 03:34 41.63647 -71.72963 13274 ft 347 kts 62°
2026-05-04 03:34 41.64530 -71.69973 12829 ft 345 kts 62°
2026-05-04 03:34 41.65406 -71.66997 12389 ft 343 kts 62°
2026-05-04 03:35 41.66274 -71.64035 11969 ft 341 kts 61°
2026-05-04 03:35 41.67138 -71.61089 11600 ft 337 kts 61°
2026-05-04 03:35 41.67980 -71.58214 11406 ft 328 kts 61°
2026-05-04 03:35 41.68808 -71.55388 11092 ft 324 kts 60°
2026-05-04 03:36 41.69616 -71.52624 11026 ft 323 kts 60°
2026-05-04 03:36 41.70438 -71.49817 11035 ft 323 kts 60°
2026-05-04 03:36 41.71258 -71.47009 11045 ft 324 kts 60°
2026-05-04 03:36 41.72081 -71.44190 11036 ft 324 kts 60°
2026-05-04 03:37 41.73079 -71.41525 11036 ft 318 kts 51°
2026-05-04 03:37 41.74188 -71.38959 11036 ft 318 kts 51°
2026-05-04 03:37 41.75290 -71.36392 11037 ft 318 kts 51°
2026-05-04 03:37 41.76390 -71.33818 11036 ft 318 kts 51°
2026-05-04 03:38 41.77473 -71.31277 11036 ft 318 kts 51°
2026-05-04 03:38 41.78571 -71.28703 11036 ft 318 kts 51°
2026-05-04 03:38 41.79669 -71.26126 11033 ft 318 kts 51°
2026-05-04 03:38 41.80771 -71.23548 11017 ft 318 kts 51°
2026-05-04 03:39 41.81869 -71.20973 11017 ft 318 kts 51°
2026-05-04 03:39 41.82968 -71.18383 11018 ft 319 kts 52°
2026-05-04 03:39 41.84055 -71.15814 11016 ft 312 kts 51°
2026-05-04 03:39 41.85115 -71.13298 11015 ft 308 kts 51°
2026-05-04 03:40 41.86176 -71.10801 11016 ft 308 kts 51°
2026-05-04 03:40 41.87255 -71.08312 11007 ft 308 kts 51°
2026-05-04 03:40 41.88337 -71.05829 11012 ft 308 kts 50°
2026-05-04 03:40 41.89407 -71.03373 11020 ft 308 kts 51°
2026-05-04 03:41 41.90480 -71.00899 10711 ft 306 kts 51°
2026-05-04 03:41 41.91544 -70.98435 10325 ft 305 kts 51°
2026-05-04 03:41 41.92603 -70.95971 9940 ft 304 kts 50°
2026-05-04 03:41 41.93657 -70.93519 9551 ft 302 kts 50°
2026-05-04 03:42 41.94703 -70.91084 9156 ft 300 kts 51°
2026-05-04 03:42 41.95743 -70.88660 8769 ft 298 kts 51°
2026-05-04 03:42 41.96780 -70.86245 8366 ft 297 kts 51°
2026-05-04 03:42 41.97810 -70.83850 8031 ft 294 kts 51°
2026-05-04 03:43 41.98821 -70.81495 8003 ft 295 kts 52°
2026-05-04 03:43 41.99847 -70.79100 8017 ft 296 kts 52°
2026-05-04 03:43 42.00890 -70.76719 8009 ft 293 kts 47°
2026-05-04 03:43 42.02166 -70.74624 8018 ft 287 kts 39°
2026-05-04 03:44 42.03504 -70.72639 8018 ft 287 kts 39°
2026-05-04 03:44 42.04841 -70.70646 8016 ft 287 kts 39°
2026-05-04 03:44 42.06174 -70.68649 8018 ft 287 kts 39°
2026-05-04 03:44 42.07508 -70.66649 8017 ft 287 kts 39°
2026-05-04 03:45 42.08833 -70.64658 7755 ft 284 kts 39°
2026-05-04 03:45 42.10240 -70.62843 7366 ft 274 kts 27°
2026-05-04 03:45 42.11863 -70.61637 6967 ft 262 kts 12°
2026-05-04 03:45 42.13567 -70.61054 6587 ft 252 kts
2026-05-04 03:46 42.15305 -70.60700 6168 ft 252 kts
2026-05-04 03:46 42.17042 -70.60337 5734 ft 253 kts
2026-05-04 03:46 42.18785 -70.59968 5267 ft 254 kts
2026-05-04 03:46 42.20532 -70.59590 4832 ft 254 kts
2026-05-04 03:47 42.22278 -70.59209 4404 ft 254 kts
2026-05-04 03:47 42.24026 -70.58830 4033 ft 253 kts
2026-05-04 03:47 42.25770 -70.58457 3997 ft 255 kts
2026-05-04 03:47 42.27512 -70.58088 3995 ft 247 kts
2026-05-04 03:48 42.29155 -70.57734 3997 ft 231 kts
2026-05-04 03:48 42.30701 -70.57391 3997 ft 222 kts
2026-05-04 03:48 42.32204 -70.57056 3993 ft 221 kts
2026-05-04 03:48 42.33740 -70.56707 3995 ft 221 kts
2026-05-04 03:49 42.35240 -70.56364 4005 ft 221 kts
2026-05-04 03:49 42.36757 -70.56014 4001 ft 221 kts
2026-05-04 03:49 42.38279 -70.55659 3996 ft 221 kts
2026-05-04 03:49 42.39781 -70.55549 3987 ft 211 kts 345°
2026-05-04 03:50 42.41074 -70.56263 4013 ft 194 kts 321°
2026-05-04 03:50 42.41970 -70.57582 4000 ft 189 kts 301°
2026-05-04 03:50 42.42483 -70.59206 3991 ft 188 kts 284°
2026-05-04 03:50 42.42591 -70.60949 3993 ft 190 kts 267°
2026-05-04 03:51 42.42329 -70.62713 3989 ft 192 kts 260°
2026-05-04 03:51 42.42024 -70.64472 3995 ft 192 kts 260°
2026-05-04 03:51 42.41727 -70.66182 3994 ft 178 kts 260°
2026-05-04 03:51 42.41451 -70.67773 4004 ft 171 kts 261°
2026-05-04 03:52 42.41180 -70.69334 3997 ft 170 kts 261°
2026-05-04 03:52 42.40910 -70.70888 3999 ft 170 kts 261°
2026-05-04 03:52 42.40639 -70.72448 3943 ft 171 kts 260°
2026-05-04 03:52 42.40367 -70.74009 3765 ft 170 kts 260°
2026-05-04 03:53 42.40095 -70.75568 3567 ft 170 kts 259°
2026-05-04 03:53 42.39823 -70.77126 3340 ft 170 kts 259°
2026-05-04 03:53 42.39555 -70.78662 3115 ft 170 kts 259°
2026-05-04 03:53 42.39283 -70.80217 2869 ft 169 kts 259°
2026-05-04 03:54 42.39015 -70.81746 2639 ft 161 kts 259°
2026-05-04 03:54 42.38765 -70.83168 2431 ft 152 kts 259°
2026-05-04 03:54 42.38524 -70.84546 2217 ft 150 kts 258°
2026-05-04 03:54 42.38287 -70.85895 2021 ft 142 kts 259°
2026-05-04 03:55 42.38063 -70.87176 1828 ft 138 kts 258°
2026-05-04 03:55 42.37844 -70.88419 1642 ft 134 kts 260°
2026-05-04 03:55 42.37630 -70.89637 1461 ft 133 kts 259°
2026-05-04 03:55 42.37416 -70.90856 1270 ft 133 kts 258°
2026-05-04 03:56 42.37204 -70.92063 1087 ft 134 kts 258°
2026-05-04 03:56 42.36986 -70.93297 892 ft 136 kts 257°
2026-05-04 03:56 42.36765 -70.94552 698 ft 137 kts 256°
2026-05-04 03:56 42.36543 -70.95813 518 ft 137 kts 256°
2026-05-04 03:57 42.36321 -70.97068 330 ft 137 kts 256°
2026-05-04 03:57 42.36101 -70.98318 146 ft 136 kts 256°
2026-05-04 03:57 42.35880 -70.99552 33 ft 128 kts 257°
2026-05-04 03:57 42.35716 -71.00505 27 ft 65 kts 257°
2026-05-04 03:58 42.35655 -71.01136 29 ft 19 kts 294°
2026-05-04 03:58 42.35724 -71.01266 28 ft 14 kts 306°
2026-05-04 03:58 42.35757 -71.01366 28 ft 11 kts 291°
2026-05-04 03:59 42.35782 -71.01458 27 ft 10 kts 289°
2026-05-04 03:59 42.35808 -71.01548 29 ft 10 kts 305°
2026-05-04 03:59 42.35867 -71.01575 27 ft 9 kts 351°
2026-05-04 03:59 42.35895 -71.01636 27 ft 11 kts 277°
2026-05-04 04:00 42.35913 -71.01766 26 ft 16 kts 283°
2026-05-04 04:00 42.35949 -71.01888 28 ft 14 kts 300°
2026-05-04 04:00 42.35998 -71.01998 29 ft 14 kts 301°
2026-05-04 04:00 42.36045 -71.02104 27 ft 12 kts 301°
2026-05-04 04:01 42.36088 -71.02202 28 ft 12 kts 301°
2026-05-04 04:01 42.36143 -71.02274 28 ft 11 kts 342°
2026-05-04 04:01 42.36213 -71.02262 28 ft 10 kts 21°
2026-05-04 04:01 42.36274 -71.02232 28 ft 9 kts 12°
2026-05-04 04:02 42.36328 -71.02274 26 ft 9 kts 302°
2026-05-04 04:02 42.36363 -71.02324 28 ft 6 kts 327°
2026-05-04 04:02 42.36400 -71.02351 29 ft 6 kts 332°
2026-05-04 04:02 42.36433 -71.02369 31 ft 5 kts 349°
2026-05-04 04:03 42.36459 -71.02379 26 ft 3 kts 323°
2026-05-04 04:03 42.36466 -71.02404 26 ft 4 kts 281°
2026-05-04 04:03 42.36467 -71.02429 27 ft 1 kts 274°
2026-05-04 04:03 42.36467 -71.02434 26 ft 0 kts 274°
2026-05-04 04:04 42.36468 -71.02434 26 ft 0 kts 274°
2026-05-04 04:04 42.36468 -71.02436 26 ft 0 kts 274°